Tracking 18945 objects as of 20-Jan-2018
HD Live streaming from Space Station
objects crossing your sky now

COSMOS 2160

Track COSMOS 2160 now!
10-day predictions
COSMOS 2160 is classified as:


NORAD ID: 21731
Int'l Code: 1991-068D
Perigee: 1,404.0 km
Apogee: 1,418.2 km
Inclination: 82.6 °
Period: 113.9 minutes
Semi major axis: 7782 km
RCS: 1.112 m2 (large)
Launch date: September 28, 1991
Source: Commonwealth of Independent States (former USSR) (CIS)
Launch site: PLESETSK MISSILE AND SPACE COMPLEX (PKMTR)
aabbcc
Your satellite tracking list
Your tracking list is empty




NASA's NSSDC Master Catalog

Two Line Element Set (TLE):
1 21731U 91068D   18019.85554774 +.00000009 +00000-0 -87358-5 0  9998
2 21731 082.5874 109.7395 0009132 151.3952 346.0726 12.64622290214431
Source of the keplerian elements: AFSPC